Date,TemperatureHighF,TemperatureAvgF,TemperatureLowF,DewpointHighF,DewpointAvgF,DewpointLowF,HumidityHigh,HumidityAvg,HumidityLow,PressureMaxIn,PressureMinIn,WindSpeedMaxMPH,WindSpeedAvgMPH,GustSpeedMaxMPH,PrecipitationSumIn
2013-3-6,41.7,36.8,33.1,29.3,24.2,18.3,68,60,53,30.06,29.94,14,1,19,0.00
2013-3-7,36.5,32.6,27.3,24.5,21.8,17.5,75,64,48,30.13,30.05,5,0,13,0.00
2013-3-8,46.9,35.2,26.8,29.1,22.4,17.3,74,60,49,30.26,30.07,8,0,14,0.08
2013-3-9,57.4,36.6,29.8,24.0,18.8,14.5,62,50,22,30.37,30.22,0,0,4,0.00
2013-3-10,45.7,32.7,27.1,28.9,19.0,13.5,70,57,41,30.38,30.26,1,0,6,0.00
2013-3-11,46.6,39.5,30.0,38.0,30.5,24.4,87,70,61,30.31,30.06,2,0,4,0.00
2013-3-12,49.8,43.7,36.9,48.5,41.4,29.4,96,92,76,30.07,29.67,0,0,4,1.24
2013-3-13,45.7,37.0,28.9,30.5,23.2,13.3,79,59,31,29.90,29.78,8,0,15,0.00
2013-3-14,30.2,26.1,20.8,20.7,3.7,-4.6,73,39,24,29.95,29.88,17,2,30,0.00
2013-3-15,33.8,29.9,24.6,25.5,14.9,-0.2,75,55,33,29.96,29.71,8,1,17,0.00
2013-3-16,32.5,31.0,28.0,17.3,14.0,7.4,53,49,42,29.88,29.77,1,0,8,0.00
2013-3-17,21.2,21.0,20.7,9.3,9.3,8.6,60,60,60,30.00,29.97,0,0,1,0.00
2013-3-18,30.0,25.4,21.2,17.6,7.5,-5.4,78,50,24,30.40,30.16,6,1,10,0.00
2013-3-19,36.5,30.8,22.6,28.5,24.8,16.5,84,78,73,30.06,29.71,2,0,6,0.17
2013-3-21,37.6,34.8,30.2,5.8,1.2,-0.5,28,24,22,29.69,29.63,2,0,11,0.00
2013-3-22,33.8,23.9,19.6,16.7,7.7,3.2,57,49,43,29.77,29.74,9,0,17,0.00
2013-3-31,52.3,41.2,36.0,35.1,28.0,19.7,88,64,30,30.09,29.79,10,2,16,0.21
2013-4-1,46.9,35.5,28.6,39.8,29.8,10.5,91,81,43,29.92,29.63,9,1,14,0.01
2013-4-2,35.4,29.7,26.8,11.1,6.1,-0.0,47,37,23,30.06,29.92,9,1,19,0.00
2013-4-3,39.4,34.5,28.0,9.8,4.4,0.7,45,28,22,30.34,30.06,10,2,19,0.00
2013-4-4,53.8,43.8,28.8,14.9,12.1,6.4,42,28,21,30.34,30.07,8,2,13,0.00
2013-4-6,48.6,46.6,42.3,13.0,10.8,7.1,24,23,21,30.25,30.23,0,0,0,0.00
2013-4-7,57.0,47.1,31.1,36.0,23.9,4.5,61,41,24,30.26,29.94,10,1,16,0.00
2013-4-8,69.6,52.0,39.2,38.0,33.8,28.8,80,54,23,30.08,29.95,5,0,9,0.00
2013-4-9,72.9,65.2,53.1,48.4,37.8,30.9,70,39,23,29.96,29.90,7,0,12,0.00
2013-4-10,61.2,52.6,46.2,53.0,49.0,41.8,99,89,66,29.98,29.83,0,0,0,0.60
2013-4-11,43.0,40.8,36.5,31.4,28.8,26.9,81,63,53,30.08,30.01,0,0,1,0.00
2013-4-12,34.2,33.1,31.6,33.5,32.0,30.1,98,96,93,29.95,29.78,6,0,18,0.69
2013-4-13,51.1,41.8,36.7,37.9,33.4,30.3,99,74,48,29.95,29.84,0,0,1,0.00
2013-4-14,48.4,43.4,34.3,31.4,25.9,22.5,66,51,43,30.25,29.94,6,0,13,0.00
2013-4-15,62.4,55.5,41.9,35.3,32.3,23.5,61,42,32,30.37,30.21,4,0,12,0.29
2013-4-16,53.8,52.0,51.6,51.3,47.7,43.6,96,86,74,30.26,30.19,0,0,1,0.02
2013-4-19,57.9,55.7,51.8,56.2,54.5,51.3,98,96,94,30.13,29.65,10,4,14,0.42
2013-4-20,50.5,46.7,43.0,49.2,38.1,27.0,98,74,52,29.90,29.68,2,0,6,0.10
2013-4-21,53.8,38.1,31.8,21.8,19.2,14.4,61,48,22,30.66,30.38,7,0,9,0.00
2013-4-22,54.0,38.5,32.0,31.1,23.5,17.0,74,56,23,30.67,30.48,2,0,9,0.06
2013-4-23,46.6,40.1,32.5,37.0,33.3,31.3,97,77,67,30.53,30.17,0,0,2,0.04
2013-4-24,70.5,54.2,31.5,54.5,45.8,31.2,99,76,40,30.18,29.75,2,0,6,0.01
2013-4-25,55.8,46.1,39.6,37.2,28.8,17.9,75,54,23,30.31,29.96,2,0,8,0.08
2013-4-26,63.5,47.8,38.7,31.4,27.3,19.7,66,48,20,30.44,30.30,2,0,6,0.00
2013-4-27,66.6,45.4,34.5,33.1,27.6,21.4,73,56,19,30.46,30.26,0,0,3,0.00
2013-4-28,67.6,55.1,46.2,37.7,34.0,31.2,57,47,29,30.32,30.12,4,0,9,0.00
2013-4-29,52.2,49.0,44.2,47.3,40.4,35.4,98,75,53,30.25,30.21,2,0,5,0.33
2013-4-30,67.3,56.4,44.2,48.0,38.7,33.6,98,55,33,30.35,30.24,0,0,1,0.01
2013-5-1,70.3,56.0,48.7,41.2,33.8,21.6,75,49,16,30.49,30.35,0,0,2,0.00
2013-5-2,77.2,67.7,54.1,42.4,37.7,33.0,62,37,20,30.41,30.27,3,0,9,0.00
2013-5-3,64.2,57.2,54.9,44.7,41.1,30.7,65,57,30,30.45,30.38,4,0,9,0.00
2013-5-4,60.3,58.5,55.0,44.3,42.0,40.6,67,55,50,30.30,30.25,0,0,0,0.00
2013-5-5,58.8,51.8,46.0,40.9,38.5,34.8,82,63,41,30.25,30.17,0,0,0,0.00
2013-5-6,73.8,59.2,43.9,50.9,43.3,39.4,91,62,30,30.26,30.08,4,0,9,0.00
2013-5-7,72.7,66.4,58.3,55.1,50.3,46.0,86,60,40,30.15,30.04,2,0,7,0.00
2013-5-8,61.2,59.1,55.4,59.8,58.3,55.1,99,97,92,30.11,29.96,7,1,11,1.18
2013-5-9,64.9,55.2,50.4,52.5,51.1,50.1,99,88,62,29.97,29.90,2,0,3,0.03
2013-5-10,69.6,62.5,50.0,57.2,55.3,49.7,99,79,62,29.98,29.89,6,0,13,0.00
2013-5-11,66.7,62.2,59.5,63.4,59.7,56.6,98,92,80,29.89,29.70,8,2,17,0.38
2013-5-14,64.2,57.1,54.1,58.6,23.8,15.1,82,30,21,30.06,29.69,2,0,5,0.00
2013-5-15,67.6,56.6,36.5,54.8,47.4,25.4,96,72,48,30.09,29.62,1,0,5,0.04
2013-5-16,79.2,66.9,55.4,51.3,42.2,24.9,85,50,18,29.74,29.70,4,0,9,0.00
2013-5-17,57.7,54.0,38.5,42.2,38.8,33.5,82,57,46,30.22,29.89,0,0,0,10.51
2013-5-18,49.5,48.8,48.7,42.5,42.5,42.5,79,79,78,30.29,30.29,0,0,0,0.00
2013-5-19,53.1,52.9,52.7,52.5,51.3,49.1,98,95,87,30.29,30.20,2,0,4,0.25
2013-5-20,78.8,73.0,68.4,64.3,62.3,59.7,83,70,59,30.05,29.97,4,1,7,0.00
2013-5-21,72.7,72.1,71.4,68.9,68.5,68.0,90,88,88,29.83,29.82,2,0,5,0.00
2013-5-22,71.8,69.7,66.9,68.8,67.8,66.4,99,94,88,29.85,29.80,0,0,2,0.38
2013-5-23,73.2,67.1,59.2,65.4,63.6,58.9,99,89,76,29.85,29.76,4,1,5,1.38
2013-5-24,59.2,52.0,42.3,58.9,50.5,38.1,99,94,85,29.97,29.71,6,0,10,0.44
2013-5-25,45.1,42.5,41.0,41.2,38.3,37.2,88,85,80,30.01,29.95,4,1,12,0.18
2013-6-2,71.1,70.2,69.1,65.3,64.9,64.4,86,83,82,29.80,29.79,1,0,4,0.42
2013-6-3,75.2,71.7,69.8,64.7,55.7,51.2,83,58,48,29.85,29.80,2,0,7,0.03
2013-6-4,74.5,66.9,57.6,39.4,32.6,27.2,50,29,19,30.08,29.97,1,0,4,0.00
2013-6-5,68.2,55.5,47.5,49.7,45.0,37.7,81,69,45,30.19,30.08,0,0,1,0.00
2013-6-6,67.5,57.7,51.8,54.2,49.9,45.8,88,76,49,30.17,30.04,4,0,9,0.03
2013-6-7,57.4,55.5,54.0,56.5,54.7,53.1,98,97,96,29.97,29.97,6,1,12,1.61
2013-6-9,76.6,61.1,54.7,55.8,54.4,51.7,97,81,44,29.97,29.97,0,0,2,0.00
2013-6-10,62.6,61.4,60.6,60.4,59.5,55.8,97,94,84,29.97,29.97,1,0,2,0.37
2013-6-11,71.2,59.7,57.7,64.0,58.4,57.3,99,96,77,29.86,29.65,3,0,5,0.34
2013-6-13,71.2,54.3,51.3,64.0,53.3,50.8,99,97,78,29.67,29.57,9,1,21,0.92
2013-6-14,70.5,54.4,50.7,56.9,51.9,50.4,99,93,62,29.86,29.64,2,0,2,0.57
2013-6-16,72.9,65.9,52.5,63.4,56.3,48.9,89,73,51,30.02,29.73,4,0,11,0.01
2013-6-17,83.8,69.2,58.5,64.8,57.8,49.4,99,73,33,29.88,29.80,3,0,9,0.03
2013-6-18,77.0,69.2,58.3,64.4,61.9,57.7,99,79,63,29.93,29.83,2,0,7,0.19
2013-6-19,75.2,59.0,50.7,56.4,49.8,41.2,99,78,34,30.21,29.94,1,0,4,0.00
2013-6-20,80.1,73.2,51.1,52.9,49.2,46.3,87,46,34,30.23,30.17,0,0,4,0.00
2013-6-21,79.2,70.5,62.6,61.1,60.4,59.7,91,72,52,30.25,30.19,2,0,5,0.00
2013-6-22,84.6,81.2,72.9,60.5,59.2,55.2,56,47,41,30.20,30.11,7,0,12,0.00
2013-6-24,81.0,73.0,66.2,67.7,65.1,62.9,89,78,65,30.04,30.03,1,0,3,0.00
2013-6-25,84.6,71.9,65.5,71.9,66.6,62.5,94,84,55,30.03,29.78,2,0,8,0.17
2013-6-26,79.2,72.7,65.1,68.5,66.4,64.2,99,82,64,29.85,29.80,1,0,3,0.00
2013-6-27,71.8,66.5,63.0,70.2,65.5,62.1,99,97,92,29.85,29.48,1,0,4,0.69
2013-6-28,81.7,70.5,63.0,68.2,65.5,62.1,99,86,55,29.53,29.43,9,2,17,0.72
2013-6-29,70.2,64.4,61.9,64.0,62.3,61.1,98,93,80,29.58,29.52,0,0,4,0.00
2013-7-2,82.8,79.5,78.1,72.0,70.5,64.6,79,74,63,30.10,29.59,6,1,10,0.84
2013-7-3,76.8,70.7,68.9,69.6,69.0,68.3,99,95,78,30.23,30.16,2,0,6,0.00
2013-7-4,69.1,68.8,68.5,68.8,68.5,68.2,99,99,99,30.24,30.22,0,0,0,0.00
2013-7-6,83.3,81.4,77.4,71.4,69.5,68.1,81,68,61,30.04,30.03,0,0,0,0.00
2013-7-7,93.6,78.4,69.3,72.8,68.5,64.4,98,76,46,30.08,29.90,6,0,11,0.00
2013-7-8,82.6,74.2,70.2,66.6,65.4,64.6,84,75,57,30.01,29.97,0,0,3,0.00
2013-7-10,77.2,70.2,69.4,72.0,69.2,68.8,98,97,85,30.01,29.90,0,0,1,0.00
2013-7-17,70.9,70.9,70.9,70.0,70.0,70.0,97,97,97,30.26,30.26,0,0,0,0.00
2013-7-18,75.0,75.0,75.0,71.5,71.5,70.0,89,89,89,30.26,30.08,0,0,0,0.00
2013-7-20,88.0,84.7,83.5,67.1,65.6,63.3,57,53,48,29.74,29.71,4,1,13,0.00
2013-7-21,81.1,72.3,68.9,66.0,64.8,60.8,90,79,52,29.99,29.93,0,0,0,12.55
2013-7-22,82.0,72.0,66.9,70.3,66.7,61.2,98,85,56,29.99,29.81,2,0,7,0.24
2013-7-23,84.9,75.3,65.3,71.2,68.7,64.8,99,82,54,29.82,29.55,0,0,3,0.12
2013-7-24,79.9,67.4,55.9,65.9,58.1,48.8,99,75,47,30.01,29.65,3,0,10,0.01
2013-7-25,68.9,61.5,53.4,54.7,51.2,48.6,86,70,58,30.06,30.01,3,0,8,0.00
2013-7-26,81.9,78.6,77.0,58.4,56.5,55.8,49,47,44,29.99,29.98,0,0,3,0.00
2013-7-27,79.5,74.2,57.9,60.4,58.1,55.9,99,60,46,30.06,30.01,2,0,8,0.00
2013-7-28,69.3,67.1,63.3,68.7,65.4,59.7,98,94,88,29.97,29.94,0,0,2,0.83
2013-8-4,61.9,61.4,60.8,61.3,50.9,48.4,98,69,63,29.99,29.83,0,0,1,0.00
2013-8-5,73.4,66.6,53.4,51.6,48.0,42.7,91,54,36,30.09,29.99,1,0,6,0.00
2013-8-7,65.8,65.8,65.8,65.6,65.6,65.6,99,99,99,30.06,30.05,0,0,0,0.00
2013-8-8,72.1,67.1,65.8,70.9,66.6,65.6,99,99,95,30.06,30.03,0,0,1,0.40
2013-8-9,75.6,72.3,68.5,72.9,70.5,64.5,98,94,88,29.99,29.81,1,0,3,2.00
2013-8-10,77.2,70.6,67.3,64.5,62.3,57.0,89,77,53,29.99,29.90,0,0,2,0.00
2013-8-11,73.4,73.1,72.7,51.9,51.8,51.1,48,48,47,30.09,30.08,0,0,0,0.00
2013-8-12,63.9,63.5,63.3,60.9,60.7,60.5,91,91,90,29.95,29.94,0,0,0,0.00
2013-8-13,73.4,63.8,62.1,66.5,60.4,56.5,98,89,76,29.95,29.73,1,0,4,0.18
2013-8-14,68.2,61.7,57.6,56.8,51.5,48.0,84,70,58,29.88,29.79,2,0,8,0.00
2013-8-15,67.3,52.2,50.2,49.7,49.4,49.1,96,91,54,30.12,30.08,0,0,0,0.00
2013-8-16,79.0,78.0,76.1,56.1,53.5,47.9,46,43,36,30.12,30.11,1,0,4,0.00
2013-8-17,78.1,65.6,53.2,55.7,53.6,52.4,98,70,45,30.27,30.25,2,0,6,0.00
2013-8-18,75.2,60.8,57.6,61.2,59.0,56.7,99,95,59,30.29,30.15,0,0,0,0.00
2013-8-19,78.1,64.8,58.5,62.1,59.9,58.2,99,87,54,30.16,30.03,1,0,2,0.00
2013-8-20,85.8,73.6,56.8,67.2,59.2,54.9,99,65,38,30.12,30.07,2,0,4,0.02
2013-8-21,84.9,74.0,58.3,64.9,60.8,58.0,99,68,46,30.19,30.14,0,0,2,0.00
2013-8-23,77.5,76.6,76.5,54.6,53.8,53.5,46,45,45,29.99,29.98,0,0,2,0.00
2013-8-24,62.4,62.4,62.4,54.4,54.4,54.4,75,75,75,30.29,30.28,0,0,0,0.00
2013-8-26,77.4,69.4,65.3,68.7,63.0,56.6,99,81,63,30.21,29.89,1,0,8,0.82
2013-8-27,86.0,72.0,64.4,67.6,65.6,63.1,99,83,54,29.95,29.84,1,0,4,0.25
2013-8-28,85.1,76.7,64.4,69.4,67.4,64.1,99,74,58,29.94,29.83,2,0,7,0.91
2013-9-2,68.9,66.1,63.0,66.8,64.5,61.8,99,95,87,29.88,29.77,2,0,6,0.79
2013-9-3,62.1,61.9,61.9,61.3,61.3,61.1,98,98,98,29.78,29.77,0,0,0,0.00
2013-9-7,61.7,55.0,46.6,56.0,51.7,46.0,98,89,80,30.15,29.93,0,0,0,0.00
2013-9-8,70.5,60.8,50.2,62.1,51.2,41.5,87,71,61,30.14,29.81,0,0,2,0.00
2013-9-9,71.1,59.5,49.8,57.0,50.5,40.6,88,73,52,30.23,30.12,1,0,5,0.00
2013-9-10,77.4,64.1,60.6,70.0,61.0,57.0,97,90,78,30.14,30.04,0,0,0,0.01
2013-9-11,84.7,70.6,66.9,74.3,69.3,66.2,99,96,71,30.11,30.01,1,0,3,0.24
2013-9-12,66.9,66.6,66.4,66.3,66.0,65.8,98,98,98,30.02,30.01,0,0,0,0.00
2013-9-18,59.9,55.0,47.5,50.0,47.1,45.3,95,75,69,30.22,30.08,0,0,0,0.00
2013-9-19,71.4,60.1,47.5,53.7,51.2,46.1,99,76,53,30.22,30.05,0,0,4,0.00
2013-9-20,79.5,70.8,61.7,56.7,55.1,49.6,83,60,38,30.02,29.96,0,0,3,0.00
2013-9-21,61.0,61.0,61.0,58.9,58.7,58.6,93,92,92,29.71,29.71,0,0,0,0.00
2013-9-22,59.7,54.0,49.1,51.4,45.1,40.6,75,72,68,29.94,29.75,0,0,2,0.02
2013-9-23,53.6,49.2,46.2,41.3,40.1,36.8,75,71,56,30.01,29.93,5,0,11,0.00
2013-10-8,60.1,48.7,43.0,59.8,47.7,41.6,99,96,95,30.40,30.07,0,0,0,1.62
2013-10-9,48.6,44.4,41.4,43.4,41.9,40.8,98,91,80,30.40,30.35,0,0,0,0.00
2013-10-10,56.7,53.3,50.0,48.2,46.0,43.8,93,77,62,30.23,30.15,0,0,0,0.00
2013-10-11,67.8,60.0,50.4,56.9,51.6,46.7,93,75,67,30.16,30.05,0,0,1,0.00
2013-10-12,52.9,51.7,51.1,43.8,43.3,42.4,75,73,71,30.16,30.15,0,0,0,0.00
2013-10-13,55.9,53.0,49.1,49.6,49.0,48.0,96,87,79,30.40,30.33,0,0,0,0.00
2013-10-14,64.8,59.8,55.6,52.6,51.8,50.5,87,75,60,30.28,30.22,0,0,0,0.00
2013-10-15,68.2,63.6,55.9,55.8,54.0,51.8,86,72,60,30.27,30.11,0,0,2,0.00
2013-10-16,59.4,57.7,55.2,55.2,53.3,50.5,94,85,80,30.06,29.91,0,0,0,0.00
2013-10-17,57.0,56.6,56.3,54.7,54.1,53.7,92,91,91,29.90,29.88,0,0,0,0.00
2013-10-23,45.3,40.3,37.6,36.8,34.3,33.2,87,79,70,30.01,29.66,0,0,2,0.02
2013-10-24,45.9,40.1,37.0,33.5,28.6,24.0,84,64,43,29.97,29.77,3,0,11,0.00
2013-10-25,45.3,44.0,38.8,31.1,29.6,28.5,73,57,53,30.19,30.12,0,0,6,0.00
2013-10-26,50.2,44.0,34.9,32.5,28.3,26.0,88,56,43,30.22,29.87,5,0,14,0.00
2013-10-27,52.0,44.9,36.3,32.6,30.2,27.3,77,58,43,30.13,29.93,3,0,7,0.00
2013-10-28,52.2,40.5,34.9,34.4,30.5,28.1,79,69,47,30.21,30.13,0,0,1,0.00
2013-10-30,60.3,43.8,34.2,43.3,38.4,27.3,99,83,52,30.37,30.15,0,0,2,0.00
2013-10-31,58.6,48.6,41.5,58.2,48.2,41.3,99,98,97,30.26,29.73,4,0,8,0.80
2013-11-1,68.0,60.2,50.5,60.5,53.3,41.0,97,80,46,29.74,29.46,13,2,18,0.43
2013-11-2,63.9,50.7,44.8,47.4,43.3,39.9,87,77,52,29.78,29.63,2,0,6,0.05
2013-11-3,41.2,33.0,26.8,38.2,22.3,16.3,91,65,59,30.51,29.92,2,0,6,0.00
2013-11-4,42.4,32.4,25.9,21.6,16.2,9.6,72,53,27,30.70,30.50,1,0,4,0.00
2013-11-5,44.8,41.5,40.3,37.0,33.3,29.3,86,73,62,30.65,30.49,0,0,1,0.00
2013-11-6,53.2,48.4,41.2,44.6,42.1,37.0,86,79,72,30.51,30.22,4,0,10,0.00
2013-11-7,53.1,38.2,34.2,27.3,22.5,5.2,74,61,14,30.23,29.93,12,2,47,38.14
2013-11-8,36.3,35.7,35.1,27.3,25.6,22.6,72,67,58,30.18,29.92,0,0,2,0.00
2013-11-9,37.9,37.8,37.8,28.7,28.6,28.5,69,69,69,29.98,29.97,0,0,0,0.00
2013-11-10,40.1,38.5,37.9,28.7,28.0,26.8,69,66,59,30.03,29.97,5,0,14,0.02
2013-11-11,48.9,42.7,38.8,33.0,27.4,25.1,72,55,45,30.18,29.95,9,0,16,0.00
2013-11-12,30.2,26.2,24.3,17.9,13.3,9.1,74,59,47,30.31,30.15,1,0,3,0.00
2013-11-13,35.2,28.0,22.8,12.4,9.3,3.3,59,46,28,30.37,30.29,4,0,11,0.00
2013-11-14,39.6,35.0,28.4,14.8,10.2,4.7,55,37,25,30.20,30.16,8,1,15,0.00
2013-11-15,54.0,46.4,36.7,21.7,17.3,14.3,48,33,21,30.23,30.12,2,0,4,0.00
2013-11-16,61.9,47.5,39.0,38.2,30.0,17.1,79,52,31,30.31,30.23,4,0,10,0.02
2013-11-17,52.7,46.2,43.9,52.2,45.3,42.5,99,97,95,30.25,30.05,0,0,0,0.05
2013-11-18,59.7,48.4,39.0,45.1,31.0,23.5,74,52,41,29.82,29.56,2,0,10,0.44
2013-11-19,37.2,33.7,28.4,25.9,21.4,17.1,65,60,57,30.36,30.04,1,0,5,0.00
2013-11-20,41.5,32.2,22.8,15.6,12.0,8.7,64,45,26,30.65,30.53,0,0,1,0.00
2013-11-21,42.1,39.2,38.1,32.5,25.5,12.6,80,60,31,30.60,30.39,0,0,0,0.00
2013-11-22,48.2,46.0,38.1,45.2,41.9,32.2,97,86,79,30.39,29.93,0,0,1,0.16
2013-11-23,41.9,38.6,32.7,34.6,28.9,14.8,78,69,42,30.06,29.90,9,0,15,0.00
2013-11-24,19.0,17.7,16.9,3.8,-0.5,-1.7,51,44,41,30.32,30.11,8,1,13,0.00
2013-11-25,33.6,28.0,26.2,10.8,7.4,2.5,45,41,33,30.42,30.29,1,0,3,0.00
2013-11-26,34.5,29.7,27.3,32.4,15.4,6.8,93,57,41,30.31,29.86,0,0,1,0.02
2013-11-27,35.1,34.5,34.3,32.9,32.3,30.6,93,92,86,29.86,29.42,0,0,1,0.87
2013-11-28,28.4,25.2,23.2,8.3,4.3,0.8,46,40,33,30.29,30.21,3,1,8,0.00
2013-11-29,32.9,24.8,16.3,15.9,9.7,2.8,56,52,45,30.77,30.57,0,0,1,0.02
2013-11-30,26.4,19.9,15.1,12.9,7.1,2.9,63,57,54,30.77,30.44,0,0,0,0.00
2013-12-1,34.5,31.5,27.9,27.7,24.5,19.7,80,75,71,30.36,30.03,0,0,1,0.00
2013-12-2,36.3,32.8,29.8,30.2,28.9,27.9,93,86,79,29.99,29.92,0,0,0,0.02
2013-12-3,34.5,31.3,28.8,29.6,26.9,-32.6,93,86,4,30.04,29.93,10,0,46,0.00
2013-12-4,46.6,33.4,28.0,33.9,28.3,24.7,92,83,62,30.12,30.05,0,0,1,0.00
2013-12-6,49.3,39.6,31.3,48.5,34.6,28.7,97,83,64,30.18,29.92,0,0,1,0.27
2013-12-7,31.6,24.8,22.3,29.1,13.2,9.9,90,61,56,30.52,30.15,0,0,0,0.27
2013-12-8,24.8,20.6,18.5,17.8,11.6,7.9,78,68,62,30.56,30.42,0,0,4,0.00
2013-12-9,34.7,32.2,23.5,30.8,28.3,17.7,89,85,78,30.42,29.96,1,0,4,0.03
2013-12-10,32.2,30.3,26.2,27.8,25.8,20.0,86,83,77,29.98,29.89,3,0,9,0.00
2013-12-17,21.6,14.6,2.3,15.8,7.8,-5.2,79,74,68,30.46,29.98,0,0,0,0.00
2013-12-18,30.9,27.1,22.6,20.1,17.1,14.7,75,66,57,30.14,30.00,2,0,5,0.02
2013-12-19,43.3,35.6,22.6,23.1,19.1,14.4,73,52,39,30.15,29.98,4,0,10,0.07
2013-12-20,46.0,41.6,36.3,34.2,29.9,27.8,73,63,54,30.02,29.94,0,0,1,0.07
2013-12-21,55.4,49.9,44.8,44.5,43.2,40.6,95,79,65,29.94,29.86,2,0,5,0.18
2013-12-22,59.2,53.2,48.9,54.3,51.0,47.8,96,92,84,29.95,29.83,4,0,8,0.05
2013-12-23,55.8,49.1,31.1,54.5,47.1,18.6,97,93,59,30.18,29.93,4,0,6,0.49
2013-12-24,34.2,31.3,29.7,19.7,15.7,11.8,64,52,44,30.19,30.13,1,0,4,0.00
2013-12-25,26.6,23.3,19.9,2.6,-1.4,-4.8,45,34,25,30.49,30.44,0,0,0,0.00
2013-12-26,25.5,23.9,22.1,20.1,17.9,15.7,83,77,74,30.27,30.21,0,0,0,0.00
2013-12-27,34.2,28.8,22.6,19.6,17.1,13.0,79,62,49,30.31,30.24,2,0,6,0.03
2013-12-28,37.6,37.6,37.6,21.1,21.1,21.1,51,51,51,30.14,30.14,0,0,0,0.00
2013-12-29,39.0,35.7,32.0,38.3,29.8,25.0,98,79,65,30.06,29.55,0,0,1,0.89
2013-12-30,36.3,36.0,35.8,32.1,31.7,31.4,85,84,84,29.70,29.69,0,0,0,0.89